Weather History for Rockingham, NC

Change the Weather History Date:

Sunday, January 13, 2013

  Actual Average (KHFF) Record (KHFF)
Temperature  
Mean Temperature 66 °F -  
Max Temperature 76 °F 53 °F 75 °F (2005)
Min Temperature 56 °F 31 °F 19 °F (2011)
Growing Degree Days 16 (Base 50)    
Moisture  
Dew Point 59 °F    
Average Humidity 83    
Maximum Humidity 100    
Minimum Humidity 55    
Precipitation  
Precipitation 0.00 in - - ()
Sea Level Pressure  
Sea Level Pressure 30.11 in    
Wind  
Wind Speed 5 mph (South)    
Max Wind Speed 12 mph    
Max Gust Speed 16 mph    
Visibility 8 miles    
Events Fog    
Averages and records for this station are not official NWS values.
T = Trace of Precipitation, MM = Missing Value Source: NWS Daily Summary

Daily Weather History Graph

Daily Weather History Graph

Search for Another Location

Airport:

Trip Planner

Search our weather history database for the weather conditions in past years. The results will help you decide how hot, cold, wet, or windy it might be!

Date:

Astronomy

Jan. 13, 2013 Rise Set
Actual Time 7:26 AM EST 5:29 PM EST
Civil Twilight 6:59 AM EST 5:56 PM EST
Nautical Twilight 6:28 AM EST 6:27 PM EST
Astronomical Twilight 5:57 AM EST 6:58 PM EST
Moon 8:30 AM EST (1/13) 7:58 PM EST (1/13)
Length of Visible Light 10h 57m
Length of Day
10h 02m
Waxing Crescent, 5% of the Moon is Illuminated
Jan 13
Waxing Crescent
Jan 18
First Quarter
Jan 26
Full
Feb 3
Last Quarter
Feb 10
New

Hourly Weather History & Observations

Time (EST) Temp. Dew Point Humidity Pressure Visibility Wind Dir Wind Speed Gust Speed Precip Events Conditions
12:15 AM 62.4 °F 59.5 °F 90% 30.11 in 10.0 mi South 3.5 mph - N/A   Clear
12:35 AM 62.2 °F 59.9 °F 92% 30.10 in 10.0 mi South 4.6 mph - N/A   Clear
12:55 AM 62.2 °F 59.7 °F 91% 30.10 in 10.0 mi South 4.6 mph - N/A   Clear
1:15 AM 62.1 °F 59.5 °F 91% 30.10 in 10.0 mi South 4.6 mph - N/A   Clear
1:35 AM 61.7 °F 59.4 °F 92% 30.11 in 10.0 mi South 3.5 mph - N/A   Clear
1:55 AM 61.5 °F 59.9 °F 94% 30.11 in 10.0 mi SSW 5.8 mph - N/A   Clear
2:15 AM 60.4 °F 59.2 °F 96% 30.11 in 10.0 mi South 3.5 mph - N/A   Clear
2:35 AM 60.6 °F 59.5 °F 96% 30.11 in 10.0 mi SSW 4.6 mph - N/A   Clear
2:55 AM 60.6 °F 59.7 °F 97% 30.11 in 10.0 mi South 3.5 mph - N/A   Clear
3:15 AM 59.9 °F 59.4 °F 98% 30.10 in 7.0 mi South 3.5 mph - N/A   Clear
3:35 AM 59.4 °F 58.8 °F 98% 30.10 in 7.0 mi Calm Calm - N/A   Clear
3:55 AM 58.6 °F 58.6 °F 100% 30.10 in 2.0 mi Calm Calm - N/A   Clear
4:15 AM 59.0 °F 59.0 °F 100% 30.10 in 4.0 mi Calm Calm - N/A   Clear
4:35 AM 58.5 °F 58.5 °F 100% 30.10 in 4.0 mi South 3.5 mph - N/A   Clear
4:55 AM 58.1 °F 58.1 °F 100% 30.10 in 2.0 mi South 3.5 mph - N/A   Mist
5:15 AM 58.3 °F 58.3 °F 100% 30.10 in 3.0 mi South 3.5 mph - N/A   Overcast
5:35 AM 58.8 °F 58.8 °F 100% 30.09 in 4.0 mi SSE 4.6 mph - N/A   Mostly Cloudy
5:55 AM 58.3 °F 58.3 °F 100% 30.11 in 3.0 mi South 3.5 mph - N/A   Scattered Clouds
6:15 AM 58.3 °F 58.3 °F 100% 30.11 in 2.0 mi SSE 4.6 mph - N/A   Clear
6:35 AM 58.3 °F 58.3 °F 100% 30.11 in 4.0 mi South 3.5 mph - N/A   Clear
6:55 AM 57.6 °F 57.6 °F 100% 30.12 in 1.8 mi South 3.5 mph - N/A   Mist
7:15 AM 57.6 °F 57.6 °F 100% 30.12 in 1.2 mi Calm Calm - N/A   Mist
7:35 AM 56.8 °F 56.8 °F 100% 30.14 in 0.2 mi SSW 3.5 mph - N/A Fog Fog
7:55 AM 57.6 °F 57.6 °F 100% 30.13 in 2.5 mi South 4.6 mph - N/A   Clear
8:15 AM 58.1 °F 58.1 °F 100% 30.15 in 3.0 mi Calm Calm - N/A   Clear
8:35 AM 59.4 °F 59.4 °F 100% 30.14 in 5.0 mi South 3.5 mph - N/A   Clear
8:55 AM 60.3 °F 60.3 °F 100% 30.15 in 7.0 mi SSW 4.6 mph - N/A   Clear
9:15 AM 61.7 °F 61.0 °F 97% 30.15 in 10.0 mi SSW 5.8 mph - N/A   Clear
9:35 AM 63.3 °F 61.0 °F 92% 30.15 in 10.0 mi SSW 6.9 mph - N/A   Clear
9:55 AM 64.4 °F 61.3 °F 90% 30.16 in 10.0 mi SW 6.9 mph - N/A   Clear
10:15 AM 65.8 °F 61.7 °F 86% 30.16 in 10.0 mi SW 6.9 mph - N/A   Clear
10:35 AM 66.2 °F 61.7 °F 85% 30.15 in 10.0 mi SW 6.9 mph - N/A   Clear
10:55 AM 67.1 °F 60.6 °F 80% 30.14 in 10.0 mi SW 10.4 mph - N/A   Clear
11:15 AM 69.8 °F 60.8 °F 73% 30.13 in 10.0 mi SW 10.4 mph 16.1 mph N/A   Clear
11:35 AM 71.6 °F 60.3 °F 67% 30.12 in 10.0 mi SW 10.4 mph - N/A   Clear
11:55 AM 72.9 °F 60.1 °F 64% 30.11 in 10.0 mi SW 10.4 mph - N/A   Clear
12:35 PM 73.4 °F 59.4 °F 61% 30.10 in 10.0 mi SSW 6.9 mph - N/A   Clear
1:15 PM 74.7 °F 59.5 °F 59% 30.08 in 10.0 mi South 8.1 mph - N/A   Clear
1:35 PM 75.4 °F 59.2 °F 57% 30.07 in 10.0 mi SSW 9.2 mph - N/A   Scattered Clouds
1:55 PM 75.9 °F 58.8 °F 55% 30.07 in 10.0 mi SW 11.5 mph - N/A   Mostly Cloudy
2:15 PM 75.9 °F 58.8 °F 55% 30.07 in 10.0 mi SSW 8.1 mph - N/A   Scattered Clouds
2:35 PM 74.8 °F 58.6 °F 57% 30.07 in 10.0 mi SW 9.2 mph - N/A   Scattered Clouds
2:55 PM 75.2 °F 59.2 °F 57% 30.08 in 10.0 mi SSW 6.9 mph - N/A   Scattered Clouds
3:15 PM 75.4 °F 58.8 °F 56% 30.08 in 10.0 mi SSW 6.9 mph - N/A   Scattered Clouds
3:35 PM 75.6 °F 59.0 °F 56% 30.08 in 10.0 mi South 10.4 mph - N/A   Clear
3:55 PM 74.7 °F 59.0 °F 58% 30.08 in 10.0 mi South 8.1 mph - N/A   Clear
4:15 PM 74.5 °F 59.4 °F 59% 30.09 in 10.0 mi SSW 9.2 mph - N/A   Clear
4:35 PM 73.4 °F 59.9 °F 63% 30.09 in 10.0 mi South 5.8 mph - N/A   Clear
4:55 PM 72.5 °F 59.9 °F 64% 30.10 in 10.0 mi South 5.8 mph - N/A   Scattered Clouds
5:15 PM 71.6 °F 59.9 °F 66% 30.09 in 10.0 mi South 5.8 mph - N/A   Scattered Clouds
5:35 PM 70.7 °F 59.9 °F 69% 30.09 in 10.0 mi SSE 5.8 mph - N/A   Clear
5:55 PM 69.8 °F 59.9 °F 71% 30.09 in 10.0 mi South 5.8 mph - N/A   Clear
6:15 PM 69.1 °F 59.5 °F 72% 30.09 in 10.0 mi South 4.6 mph - N/A   Clear
6:35 PM 68.2 °F 59.4 °F 73% 30.09 in 10.0 mi South 5.8 mph - N/A   Clear
6:55 PM 68.2 °F 59.5 °F 74% 30.09 in 10.0 mi South 4.6 mph - N/A   Clear
7:15 PM 67.3 °F 59.4 °F 76% 30.09 in 10.0 mi South 5.8 mph - N/A   Clear
7:35 PM 67.3 °F 59.5 °F 76% 30.09 in 10.0 mi South 5.8 mph - N/A   Clear
7:55 PM 66.9 °F 59.4 °F 77% 30.09 in 10.0 mi South 4.6 mph - N/A   Clear
8:15 PM 66.4 °F 59.5 °F 79% 30.09 in 10.0 mi South 4.6 mph - N/A   Clear
8:35 PM 65.7 °F 59.5 °F 81% 30.09 in 10.0 mi South 5.8 mph - N/A   Clear
8:55 PM 65.3 °F 59.5 °F 82% 30.09 in 10.0 mi South 4.6 mph - N/A   Clear
9:15 PM 65.3 °F 59.9 °F 83% 30.10 in 10.0 mi South 5.8 mph - N/A   Clear
9:35 PM 64.8 °F 59.9 °F 84% 30.10 in 10.0 mi South 5.8 mph - N/A   Clear
9:55 PM 64.6 °F 59.9 °F 85% 30.10 in 10.0 mi South 6.9 mph - N/A   Clear
10:15 PM 64.4 °F 59.9 °F 85% 30.11 in 10.0 mi South 6.9 mph - N/A   Clear
10:35 PM 64.0 °F 59.9 °F 86% 30.11 in 10.0 mi South 6.9 mph - N/A   Clear
10:55 PM 64.0 °F 59.5 °F 85% 30.11 in 10.0 mi South 6.9 mph - N/A   Clear
11:15 PM 63.9 °F 59.4 °F 85% 30.11 in 10.0 mi South 8.1 mph - N/A   Clear
11:35 PM 63.9 °F 59.4 °F 85% 30.11 in 10.0 mi South 8.1 mph - N/A   Clear
11:55 PM 63.7 °F 59.0 °F 85% 30.10 in 10.0 mi South 8.1 mph - N/A   Clear